Location: Unspecified
(42.3650°N, 71.1030°W)
Time: 15:51:12
(UTC+00:00)

Transit 4A - Pass Details

Date: 03 July 2024
Orbit: 870 x 973 km, 66.8° (Epoch: 17 July)

Event Time Altitude Azimuth Distance (km) Brightness Sun altitude
Rises 06:45:00 0° 338° (NNW) 3,489 11.5 -19.4°
Reaches altitude 10° 06:50:37 10° 21° (NNE) 2,573 11.4 -18.9°
Maximum altitude 06:51:18 10° 28° (NNE) 2,563 11.5 -18.9°
Drops below altitude 10° 06:52:00 10° 34° (NE) 2,580 11.5 -18.8°
Sets 06:57:41 0° 77° (ENE) 3,551 11.6 -18.3°
